{"data":{"norad_id":49029,"intl_designator":"2021-065D","name":"YAOGAN-30 11C","alt_names":[],"object_type":"PAYLOAD","status":"ACTIVE","operator":null,"country":"PRC","launch_date":"2021-07-19","launch_site_code":"XICLF","launch_vehicle":null,"mission":null,"orbit_class":"UNKNOWN","rcs_meters":null,"size_class":null,"mass_kg":null,"dimensions":null,"purposes":[],"wikipedia_slug":null,"has_3d_model":false,"image_url":null,"decayed_at":null,"tle_current":{"epoch":"2026-09-20T20:56:00.284928Z","epoch_age_seconds":68851,"freshness":"FRESH","line1":"1 49029U 21065D   26263.87222552  .00001575  00000+0  11672-3 0  9997","line2":"2 49029  34.9947  49.2696 0003710  13.7640 346.3169 15.03052380283068","mean_motion":15.0305238,"eccentricity":0.000371,"inclination_deg":34.9947,"raan_deg":49.2696,"arg_perigee_deg":13.764,"mean_anomaly_deg":346.3169,"bstar":0.00011672,"rev_number":28306,"period_min":95.805044399051,"perigee_km":554.91745118939,"apogee_km":560.0636868456,"semimajor_km":6935.6275690175,"source":"CELESTRAK","updated_at":"2026-09-21T09:00:07.942822Z"}}}